owner,sensor,date,latitude,longitude,sea_surface_height_above_sea_level,qcFlag 
DISL,ioos:station:DISL:BSCA:1,2018-04-01T08:00:00Z,30.3288,-87.8293,2.061,1111122 
DISL,ioos:station:DISL:BSCA:1,2018-04-01T09:00:00Z,30.3288,-87.8293,2.056,1111122 
DISL,ioos:station:DISL:BSCA:1,2018-04-01T10:00:00Z,30.3288,-87.8293,2.078,1111122 
DISL,ioos:station:DISL:BSCA:1,2018-04-01T11:00:00Z,30.3288,-87.8293,2.063,1111122 
DISL,ioos:station:DISL:BSCA:1,2018-04-01T12:00:00Z,30.3288,-87.8293,2.014,1111122 
DISL,ioos:station:DISL:BSCA:1,2018-04-01T13:00:00Z,30.3288,-87.8293,2.028,1111122 
DISL,ioos:station:DISL:BSCA:1,2018-04-01T13:30:00Z,30.3288,-87.8293,2.036,1111122 
DISL,ioos:station:DISL:BSCA:1,2018-04-02T19:30:00Z,30.3288,-87.8293,2.171,1111122 
DISL,ioos:station:DISL:BSCA:1,2018-04-03T10:30:00Z,30.3288,-87.8293,2.093,1111122 
DISL,ioos:station:DISL:BSCA:1,2018-04-04T18:00:00Z,30.3288,-87.8293,2.023,1111122 
DISL,ioos:station:DISL:BSCA:1,2018-04-04T18:30:00Z,30.3288,-87.8293,2.003,1111122 
DISL,ioos:station:DISL:BSCA:1,2018-04-04T20:00:00Z,30.3288,-87.8293,1.984,1111122 
DISL,ioos:station:DISL:BSCA:1,2018-04-04T20:30:00Z,30.3288,-87.8293,1.983,1111122 
DISL,ioos:station:DISL:BSCA:1,2018-04-04T21:30:00Z,30.3288,-87.8293,1.979,1111122 
DISL,ioos:station:DISL:BSCA:1,2018-04-04T22:30:00Z,30.3288,-87.8293,1.989,1111122 
DISL,ioos:station:DISL:BSCA:1,2018-04-04T23:30:00Z,30.3288,-87.8293,1.933,1111122 
DISL,ioos:station:DISL:BSCA:1,2018-04-05T00:30:00Z,30.3288,-87.8293,1.871,1111122 
DISL,ioos:station:DISL:BSCA:1,2018-04-05T01:30:00Z,30.3288,-87.8293,1.835,1111122 
DISL,ioos:station:DISL:BSCA:1,2018-04-05T02:30:00Z,30.3288,-87.8293,1.791,1111122 
DISL,ioos:station:DISL:BSCA:1,2018-04-05T03:30:00Z,30.3288,-87.8293,1.717,1111122 
DISL,ioos:station:DISL:BSCA:1,2018-04-05T04:30:00Z,30.3288,-87.8293,1.685,1111122 
DISL,ioos:station:DISL:BSCA:1,2018-04-05T05:30:00Z,30.3288,-87.8293,1.681,1111122 
DISL,ioos:station:DISL:BSCA:1,2018-04-05T06:30:00Z,30.3288,-87.8293,1.662,1111122 
DISL,ioos:station:DISL:BSCA:1,2018-04-05T07:30:00Z,30.3288,-87.8293,1.664,1111122 
DISL,ioos:station:DISL:BSCA:1,2018-04-05T08:30:00Z,30.3288,-87.8293,1.667,1111122 
DISL,ioos:station:DISL:BSCA:1,2018-04-05T09:30:00Z,30.3288,-87.8293,1.645,1111122 
DISL,ioos:station:DISL:BSCA:1,2018-04-05T10:30:00Z,30.3288,-87.8293,1.641,1111122 
DISL,ioos:station:DISL:BSCA:1,2018-04-05T11:30:00Z,30.3288,-87.8293,1.699,1111122 
DISL,ioos:station:DISL:BSCA:1,2018-04-05T12:30:00Z,30.3288,-87.8293,1.765,1111122 
DISL,ioos:station:DISL:BSCA:1,2018-04-05T13:30:00Z,30.3288,-87.8293,1.817,1111122 
DISL,ioos:station:DISL:BSCA:1,2018-04-05T14:00:00Z,30.3288,-87.8293,1.836,1111122 
DISL,ioos:station:DISL:BSCA:1,2018-04-06T08:30:00Z,30.3288,-87.8293,1.697,1111122 
DISL,ioos:station:DISL:BSCA:1,2018-04-06T09:30:00Z,30.3288,-87.8293,1.726,1111122 
DISL,ioos:station:DISL:BSCA:1,2018-04-06T10:30:00Z,30.3288,-87.8293,1.781,1111122 
DISL,ioos:station:DISL:BSCA:1,2018-04-06T11:30:00Z,30.3288,-87.8293,1.835,1111122 
DISL,ioos:station:DISL:BSCA:1,2018-04-06T12:30:00Z,30.3288,-87.8293,1.891,1111122 
DISL,ioos:station:DISL:BSCA:1,2018-04-08T04:00:00Z,30.3288,-87.8293,1.81,1111122 
DISL,ioos:station:DISL:BSCA:1,2018-04-08T04:30:00Z,30.3288,-87.8293,1.773,1111122 
DISL,ioos:station:DISL:BSCA:1,2018-04-08T05:30:00Z,30.3288,-87.8293,1.715,1111122 
DISL,ioos:station:DISL:BSCA:1,2018-04-08T06:30:00Z,30.3288,-87.8293,1.653,1111122 
DISL,ioos:station:DISL:BSCA:1,2018-04-08T07:30:00Z,30.3288,-87.8293,1.615,1111122 
DISL,ioos:station:DISL:BSCA:1,2018-04-08T08:30:00Z,30.3288,-87.8293,1.613,1111122 
DISL,ioos:station:DISL:BSCA:1,2018-04-08T09:30:00Z,30.3288,-87.8293,1.638,1111122 
DISL,ioos:station:DISL:BSCA:1,2018-04-08T11:30:00Z,30.3288,-87.8293,1.708,1111122 
DISL,ioos:station:DISL:BSCA:1,2018-04-09T21:00:00Z,30.3288,-87.8293,2.103,1111122 
DISL,ioos:station:DISL:BSCA:1,2018-04-09T22:00:00Z,30.3288,-87.8293,2.161,1111122 
DISL,ioos:station:DISL:BSCA:1,2018-04-09T23:00:00Z,30.3288,-87.8293,2.18,1111122 
DISL,ioos:station:DISL:BSCA:1,2018-04-09T23:30:00Z,30.3288,-87.8293,2.173,1111122 
DISL,ioos:station:DISL:BSCA:1,2018-04-10T00:30:00Z,30.3288,-87.8293,2.162,1111122 
DISL,ioos:station:DISL:BSCA:1,2018-04-10T01:30:00Z,30.3288,-87.8293,2.109,1111122 
DISL,ioos:station:DISL:BSCA:1,2018-04-10T02:30:00Z,30.3288,-87.8293,2.053,1111122 
DISL,ioos:station:DISL:BSCA:1,2018-04-10T03:30:00Z,30.3288,-87.8293,2.006,1111122 
DISL,ioos:station:DISL:BSCA:1,2018-04-10T04:30:00Z,30.3288,-87.8293,1.953,1111122 
DISL,ioos:station:DISL:BSCA:1,2018-04-10T18:30:00Z,30.3288,-87.8293,2.022,1111122 
DISL,ioos:station:DISL:BSCA:1,2018-04-10T20:00:00Z,30.3288,-87.8293,2.084,1111122 
DISL,ioos:station:DISL:BSCA:1,2018-04-10T21:00:00Z,30.3288,-87.8293,2.107,1111122 
DISL,ioos:station:DISL:BSCA:1,2018-04-10T21:30:00Z,30.3288,-87.8293,2.114,1111122 
DISL,ioos:station:DISL:BSCA:1,2018-04-10T23:00:00Z,30.3288,-87.8293,2.139,1111122 
DISL,ioos:station:DISL:BSCA:1,2018-04-10T23:30:00Z,30.3288,-87.8293,2.132,1111122 
DISL,ioos:station:DISL:BSCA:1,2018-04-11T00:30:00Z,30.3288,-87.8293,2.102,1111122 
DISL,ioos:station:DISL:BSCA:1,2018-04-11T01:30:00Z,30.3288,-87.8293,2.088,1111122 
DISL,ioos:station:DISL:BSCA:1,2018-04-11T02:30:00Z,30.3288,-87.8293,2.059,1111122 
DISL,ioos:station:DISL:BSCA:1,2018-04-11T03:30:00Z,30.3288,-87.8293,2.039,1111122 
DISL,ioos:station:DISL:BSCA:1,2018-04-11T04:30:00Z,30.3288,-87.8293,1.985,1111122 
DISL,ioos:station:DISL:BSCA:1,2018-04-11T05:30:00Z,30.3288,-87.8293,1.932,1111122 
DISL,ioos:station:DISL:BSCA:1,2018-04-11T06:30:00Z,30.3288,-87.8293,1.911,1111122 
DISL,ioos:station:DISL:BSCA:1,2018-04-11T07:30:00Z,30.3288,-87.8293,1.872,1111122 
DISL,ioos:station:DISL:BSCA:1,2018-04-11T08:30:00Z,30.3288,-87.8293,1.799,1111122 
DISL,ioos:station:DISL:BSCA:1,2018-04-11T09:30:00Z,30.3288,-87.8293,1.762,1111122 
DISL,ioos:station:DISL:BSCA:1,2018-04-11T10:30:00Z,30.3288,-87.8293,1.713,1111122 
DISL,ioos:station:DISL:BSCA:1,2018-04-11T11:30:00Z,30.3288,-87.8293,1.686,1111122 
DISL,ioos:station:DISL:BSCA:1,2018-04-11T12:30:00Z,30.3288,-87.8293,1.713,1111122 
DISL,ioos:station:DISL:BSCA:1,2018-04-11T13:00:00Z,30.3288,-87.8293,1.741,1111122 
DISL,ioos:station:DISL:BSCA:1,2018-04-11T18:00:00Z,30.3288,-87.8293,2.013,1111122 
DISL,ioos:station:DISL:BSCA:1,2018-04-11T19:00:00Z,30.3288,-87.8293,2.058,1111122 
DISL,ioos:station:DISL:BSCA:1,2018-04-11T20:00:00Z,30.3288,-87.8293,2.063,1111122 
DISL,ioos:station:DISL:BSCA:1,2018-04-11T21:00:00Z,30.3288,-87.8293,2.035,1111122 
DISL,ioos:station:DISL:BSCA:1,2018-04-11T22:00:00Z,30.3288,-87.8293,2.032,1111122 
DISL,ioos:station:DISL:BSCA:1,2018-04-11T23:00:00Z,30.3288,-87.8293,2.07,1111122 
DISL,ioos:station:DISL:BSCA:1,2018-04-12T00:00:00Z,30.3288,-87.8293,2.063,1111122 
DISL,ioos:station:DISL:BSCA:1,2018-04-12T01:00:00Z,30.3288,-87.8293,2.025,1111122 
DISL,ioos:station:DISL:BSCA:1,2018-04-12T02:00:00Z,30.3288,-87.8293,1.988,1111122 
DISL,ioos:station:DISL:BSCA:1,2018-04-12T02:30:00Z,30.3288,-87.8293,1.984,1111122 
DISL,ioos:station:DISL:BSCA:1,2018-04-12T03:30:00Z,30.3288,-87.8293,1.988,1111122 
DISL,ioos:station:DISL:BSCA:1,2018-04-12T04:30:00Z,30.3288,-87.8293,1.978,1111122 
DISL,ioos:station:DISL:BSCA:1,2018-04-12T05:30:00Z,30.3288,-87.8293,1.932,1111122 
DISL,ioos:station:DISL:BSCA:1,2018-04-12T06:30:00Z,30.3288,-87.8293,1.871,1111122 
DISL,ioos:station:DISL:BSCA:1,2018-04-12T07:30:00Z,30.3288,-87.8293,1.82,1111122 
DISL,ioos:station:DISL:BSCA:1,2018-04-12T08:30:00Z,30.3288,-87.8293,1.777,1111122 
DISL,ioos:station:DISL:BSCA:1,2018-04-12T09:30:00Z,30.3288,-87.8293,1.751,1111122 
DISL,ioos:station:DISL:BSCA:1,2018-04-12T11:00:00Z,30.3288,-87.8293,1.733,1111122 
DISL,ioos:station:DISL:BSCA:1,2018-04-12T12:00:00Z,30.3288,-87.8293,1.719,1111122 
DISL,ioos:station:DISL:BSCA:1,2018-04-12T13:00:00Z,30.3288,-87.8293,1.719,1111122 
DISL,ioos:station:DISL:BSCA:1,2018-04-12T14:00:00Z,30.3288,-87.8293,1.759,1111122 
DISL,ioos:station:DISL:BSCA:1,2018-04-12T16:00:00Z,30.3288,-87.8293,1.86,1111122 
DISL,ioos:station:DISL:BSCA:1,2018-04-12T17:00:00Z,30.3288,-87.8293,1.87,1111122 
DISL,ioos:station:DISL:BSCA:1,2018-04-12T18:30:00Z,30.3288,-87.8293,1.884,1111122 
DISL,ioos:station:DISL:BSCA:1,2018-04-13T03:00:00Z,30.3288,-87.8293,2.06,1111122 
DISL,ioos:station:DISL:BSCA:1,2018-04-13T04:00:00Z,30.3288,-87.8293,2.062,1111122 
DISL,ioos:station:DISL:BSCA:1,2018-04-13T05:00:00Z,30.3288,-87.8293,2.04,1111122 
DISL,ioos:station:DISL:BSCA:1,2018-04-13T10:00:00Z,30.3288,-87.8293,1.899,1111122 
DISL,ioos:station:DISL:BSCA:1,2018-04-13T11:00:00Z,30.3288,-87.8293,1.869,1111122 
DISL,ioos:station:DISL:BSCA:1,2018-04-13T12:00:00Z,30.3288,-87.8293,1.864,1111122 
DISL,ioos:station:DISL:BSCA:1,2018-04-13T13:00:00Z,30.3288,-87.8293,1.889,1111122 
DISL,ioos:station:DISL:BSCA:1,2018-04-13T14:00:00Z,30.3288,-87.8293,1.907,1111122 
DISL,ioos:station:DISL:BSCA:1,2018-04-13T15:00:00Z,30.3288,-87.8293,1.929,1111122 
DISL,ioos:station:DISL:BSCA:1,2018-04-13T15:30:00Z,30.3288,-87.8293,1.943,1111122 
DISL,ioos:station:DISL:BSCA:1,2018-04-15T09:00:00Z,30.3288,-87.8293,2.317,1111122 
DISL,ioos:station:DISL:BSCA:1,2018-04-15T10:00:00Z,30.3288,-87.8293,2.47,1111122 
DISL,ioos:station:DISL:BSCA:1,2018-04-15T11:00:00Z,30.3288,-87.8293,2.198,1111122 
DISL,ioos:station:DISL:BSCA:1,2018-04-15T12:00:00Z,30.3288,-87.8293,2.045,1111122 
DISL,ioos:station:DISL:BSCA:1,2018-04-16T01:00:00Z,30.3288,-87.8293,1.968,1111122 
DISL,ioos:station:DISL:BSCA:1,2018-04-16T02:00:00Z,30.3288,-87.8293,1.929,1111122 
DISL,ioos:station:DISL:BSCA:1,2018-04-16T03:00:00Z,30.3288,-87.8293,1.851,1111122 
DISL,ioos:station:DISL:BSCA:1,2018-04-16T04:00:00Z,30.3288,-87.8293,1.777,1111122 
DISL,ioos:station:DISL:BSCA:1,2018-04-16T05:00:00Z,30.3288,-87.8293,1.731,1111122 
DISL,ioos:station:DISL:BSCA:1,2018-04-16T06:00:00Z,30.3288,-87.8293,1.759,1111122 
DISL,ioos:station:DISL:BSCA:1,2018-04-16T07:00:00Z,30.3288,-87.8293,1.813,1111122 
DISL,ioos:station:DISL:BSCA:1,2018-04-16T08:00:00Z,30.3288,-87.8293,1.851,1111122 
DISL,ioos:station:DISL:BSCA:1,2018-04-16T09:00:00Z,30.3288,-87.8293,1.861,1111122 
DISL,ioos:station:DISL:BSCA:1,2018-04-16T10:00:00Z,30.3288,-87.8293,1.855,1111122 
DISL,ioos:station:DISL:BSCA:1,2018-04-16T11:00:00Z,30.3288,-87.8293,1.863,1111122 
DISL,ioos:station:DISL:BSCA:1,2018-04-16T12:00:00Z,30.3288,-87.8293,1.881,1111122 
DISL,ioos:station:DISL:BSCA:1,2018-04-16T13:00:00Z,30.3288,-87.8293,1.929,1111122 
DISL,ioos:station:DISL:BSCA:1,2018-04-16T14:00:00Z,30.3288,-87.8293,1.999,1111122 
DISL,ioos:station:DISL:BSCA:1,2018-04-16T15:00:00Z,30.3288,-87.8293,2.004,1111122 
DISL,ioos:station:DISL:BSCA:1,2018-04-16T16:00:00Z,30.3288,-87.8293,1.989,1111122 
DISL,ioos:station:DISL:BSCA:1,2018-04-16T16:30:00Z,30.3288,-87.8293,1.963,1111122 
DISL,ioos:station:DISL:BSCA:1,2018-04-16T18:00:00Z,30.3288,-87.8293,1.985,1111122 
DISL,ioos:station:DISL:BSCA:1,2018-04-16T19:00:00Z,30.3288,-87.8293,1.972,1111122 
DISL,ioos:station:DISL:BSCA:1,2018-04-16T20:00:00Z,30.3288,-87.8293,1.955,1111122 
DISL,ioos:station:DISL:BSCA:1,2018-04-16T21:00:00Z,30.3288,-87.8293,1.876,1111122 
DISL,ioos:station:DISL:BSCA:1,2018-04-16T22:00:00Z,30.3288,-87.8293,1.806,1111122 
DISL,ioos:station:DISL:BSCA:1,2018-04-16T23:00:00Z,30.3288,-87.8293,1.766,1111122 
DISL,ioos:station:DISL:BSCA:1,2018-04-17T00:00:00Z,30.3288,-87.8293,1.718,1111122 
DISL,ioos:station:DISL:BSCA:1,2018-04-17T01:00:00Z,30.3288,-87.8293,1.655,1111122 
DISL,ioos:station:DISL:BSCA:1,2018-04-17T02:00:00Z,30.3288,-87.8293,1.613,1111122 
DISL,ioos:station:DISL:BSCA:1,2018-04-17T03:00:00Z,30.3288,-87.8293,1.595,1111122 
DISL,ioos:station:DISL:BSCA:1,2018-04-17T04:00:00Z,30.3288,-87.8293,1.605,1111122 
DISL,ioos:station:DISL:BSCA:1,2018-04-17T05:00:00Z,30.3288,-87.8293,1.64,1111122 
DISL,ioos:station:DISL:BSCA:1,2018-04-17T06:00:00Z,30.3288,-87.8293,1.681,1111122 
DISL,ioos:station:DISL:BSCA:1,2018-04-17T07:00:00Z,30.3288,-87.8293,1.717,1111122 
DISL,ioos:station:DISL:BSCA:1,2018-04-17T08:30:00Z,30.3288,-87.8293,1.768,1111122 
DISL,ioos:station:DISL:BSCA:1,2018-04-17T23:30:00Z,30.3288,-87.8293,1.744,1111122 
DISL,ioos:station:DISL:BSCA:1,2018-04-18T03:00:00Z,30.3288,-87.8293,1.695,1111122 
DISL,ioos:station:DISL:BSCA:1,2018-04-18T03:30:00Z,30.3288,-87.8293,1.709,1111122 
DISL,ioos:station:DISL:BSCA:1,2018-04-18T05:00:00Z,30.3288,-87.8293,1.787,1111122 
DISL,ioos:station:DISL:BSCA:1,2018-04-18T06:00:00Z,30.3288,-87.8293,1.838,1111122 
DISL,ioos:station:DISL:BSCA:1,2018-04-18T07:00:00Z,30.3288,-87.8293,1.877,1111122 
DISL,ioos:station:DISL:BSCA:1,2018-04-18T08:00:00Z,30.3288,-87.8293,1.934,1111122 
DISL,ioos:station:DISL:BSCA:1,2018-04-18T09:00:00Z,30.3288,-87.8293,1.982,1111122 
DISL,ioos:station:DISL:BSCA:1,2018-04-18T10:00:00Z,30.3288,-87.8293,2.007,1111122 
DISL,ioos:station:DISL:BSCA:1,2018-04-18T11:00:00Z,30.3288,-87.8293,2.041,1111122 
DISL,ioos:station:DISL:BSCA:1,2018-04-18T17:00:00Z,30.3288,-87.8293,2.168,1111122 
DISL,ioos:station:DISL:BSCA:1,2018-04-18T18:00:00Z,30.3288,-87.8293,2.157,1111122 
DISL,ioos:station:DISL:BSCA:1,2018-04-18T19:00:00Z,30.3288,-87.8293,2.133,1111122 
DISL,ioos:station:DISL:BSCA:1,2018-04-18T20:00:00Z,30.3288,-87.8293,2.077,1111122 
DISL,ioos:station:DISL:BSCA:1,2018-04-18T20:30:00Z,30.3288,-87.8293,2.055,1111122 
DISL,ioos:station:DISL:BSCA:1,2018-04-18T22:00:00Z,30.3288,-87.8293,1.976,1111122 
DISL,ioos:station:DISL:BSCA:1,2018-04-18T23:00:00Z,30.3288,-87.8293,1.914,1111122 
DISL,ioos:station:DISL:BSCA:1,2018-04-19T00:00:00Z,30.3288,-87.8293,1.825,1111122 
DISL,ioos:station:DISL:BSCA:1,2018-04-19T01:00:00Z,30.3288,-87.8293,1.783,1111122 
DISL,ioos:station:DISL:BSCA:1,2018-04-19T04:00:00Z,30.3288,-87.8293,1.743,1111122 
DISL,ioos:station:DISL:BSCA:1,2018-04-19T05:00:00Z,30.3288,-87.8293,1.729,1111122 
DISL,ioos:station:DISL:BSCA:1,2018-04-19T06:00:00Z,30.3288,-87.8293,1.736,1111122 
DISL,ioos:station:DISL:BSCA:1,2018-04-19T07:00:00Z,30.3288,-87.8293,1.791,1111122 
DISL,ioos:station:DISL:BSCA:1,2018-04-19T10:00:00Z,30.3288,-87.8293,1.962,1111122 
DISL,ioos:station:DISL:BSCA:1,2018-04-19T17:00:00Z,30.3288,-87.8293,2.164,1111122 
DISL,ioos:station:DISL:BSCA:1,2018-04-19T18:00:00Z,30.3288,-87.8293,2.111,1111122 
DISL,ioos:station:DISL:BSCA:1,2018-04-19T19:00:00Z,30.3288,-87.8293,2.071,1111122 
DISL,ioos:station:DISL:BSCA:1,2018-04-19T20:00:00Z,30.3288,-87.8293,2.052,1111122 
DISL,ioos:station:DISL:BSCA:1,2018-04-19T21:00:00Z,30.3288,-87.8293,2.041,1111122 
DISL,ioos:station:DISL:BSCA:1,2018-04-19T22:00:00Z,30.3288,-87.8293,2.006,1111122 
DISL,ioos:station:DISL:BSCA:1,2018-04-19T23:00:00Z,30.3288,-87.8293,1.938,1111122 
DISL,ioos:station:DISL:BSCA:1,2018-04-20T00:00:00Z,30.3288,-87.8293,1.854,1111122 
DISL,ioos:station:DISL:BSCA:1,2018-04-20T01:00:00Z,30.3288,-87.8293,1.789,1111122 
DISL,ioos:station:DISL:BSCA:1,2018-04-20T02:00:00Z,30.3288,-87.8293,1.717,1111122 
DISL,ioos:station:DISL:BSCA:1,2018-04-20T03:00:00Z,30.3288,-87.8293,1.647,1111122 
DISL,ioos:station:DISL:BSCA:1,2018-04-20T04:00:00Z,30.3288,-87.8293,1.57,1111122 
DISL,ioos:station:DISL:BSCA:1,2018-04-20T04:30:00Z,30.3288,-87.8293,1.549,1111122 
DISL,ioos:station:DISL:BSCA:1,2018-04-20T06:00:00Z,30.3288,-87.8293,1.472,1111122 
DISL,ioos:station:DISL:BSCA:1,2018-04-20T07:00:00Z,30.3288,-87.8293,1.435,1111122 
DISL,ioos:station:DISL:BSCA:1,2018-04-20T08:00:00Z,30.3288,-87.8293,1.438,1111122 
DISL,ioos:station:DISL:BSCA:1,2018-04-20T09:00:00Z,30.3288,-87.8293,1.478,1111122 
DISL,ioos:station:DISL:BSCA:1,2018-04-20T10:00:00Z,30.3288,-87.8293,1.533,1111122 
DISL,ioos:station:DISL:BSCA:1,2018-04-20T11:00:00Z,30.3288,-87.8293,1.588,1111122 
DISL,ioos:station:DISL:BSCA:1,2018-04-20T12:00:00Z,30.3288,-87.8293,1.672,1111122 
DISL,ioos:station:DISL:BSCA:1,2018-04-20T12:30:00Z,30.3288,-87.8293,1.716,1111122 
DISL,ioos:station:DISL:BSCA:1,2018-04-20T14:00:00Z,30.3288,-87.8293,1.811,1111122 
DISL,ioos:station:DISL:BSCA:1,2018-04-20T14:30:00Z,30.3288,-87.8293,1.858,1111122 
DISL,ioos:station:DISL:BSCA:1,2018-04-21T08:00:00Z,30.3288,-87.8293,1.572,1111122 
DISL,ioos:station:DISL:BSCA:1,2018-04-21T09:00:00Z,30.3288,-87.8293,1.588,1111122 
DISL,ioos:station:DISL:BSCA:1,2018-04-21T10:00:00Z,30.3288,-87.8293,1.641,1111122 
DISL,ioos:station:DISL:BSCA:1,2018-04-21T11:00:00Z,30.3288,-87.8293,1.712,1111122 
DISL,ioos:station:DISL:BSCA:1,2018-04-21T12:00:00Z,30.3288,-87.8293,1.779,1111122 
DISL,ioos:station:DISL:BSCA:1,2018-04-21T13:00:00Z,30.3288,-87.8293,1.855,1111122 
DISL,ioos:station:DISL:BSCA:1,2018-04-21T14:00:00Z,30.3288,-87.8293,1.914,1111122 
DISL,ioos:station:DISL:BSCA:1,2018-04-21T15:00:00Z,30.3288,-87.8293,1.965,1111122 
DISL,ioos:station:DISL:BSCA:1,2018-04-21T16:00:00Z,30.3288,-87.8293,2.03,1111122 
DISL,ioos:station:DISL:BSCA:1,2018-04-21T17:00:00Z,30.3288,-87.8293,2.099,1111122 
DISL,ioos:station:DISL:BSCA:1,2018-04-21T18:00:00Z,30.3288,-87.8293,2.168,1111122 
DISL,ioos:station:DISL:BSCA:1,2018-04-21T19:00:00Z,30.3288,-87.8293,2.201,1111122 
DISL,ioos:station:DISL:BSCA:1,2018-04-21T19:30:00Z,30.3288,-87.8293,2.2,1111122 
DISL,ioos:station:DISL:BSCA:1,2018-04-23T05:00:00Z,30.3288,-87.8293,1.974,1111122 
DISL,ioos:station:DISL:BSCA:1,2018-04-23T08:00:00Z,30.3288,-87.8293,1.821,1111122 
DISL,ioos:station:DISL:BSCA:1,2018-04-23T09:00:00Z,30.3288,-87.8293,1.778,1111122 
DISL,ioos:station:DISL:BSCA:1,2018-04-23T09:30:00Z,30.3288,-87.8293,1.773,1111122 
DISL,ioos:station:DISL:BSCA:1,2018-04-23T20:30:00Z,30.3288,-87.8293,2.373,1111122 
DISL,ioos:station:DISL:BSCA:1,2018-04-23T22:00:00Z,30.3288,-87.8293,2.406,1111122 
DISL,ioos:station:DISL:BSCA:1,2018-04-23T23:00:00Z,30.3288,-87.8293,2.355,1111122 
DISL,ioos:station:DISL:BSCA:1,2018-04-23T23:30:00Z,30.3288,-87.8293,2.317,1111122 
DISL,ioos:station:DISL:BSCA:1,2018-04-24T01:00:00Z,30.3288,-87.8293,2.24,1111122 
DISL,ioos:station:DISL:BSCA:1,2018-04-24T02:00:00Z,30.3288,-87.8293,2.181,1111122 
DISL,ioos:station:DISL:BSCA:1,2018-04-24T02:30:00Z,30.3288,-87.8293,2.13,1111122 
DISL,ioos:station:DISL:BSCA:1,2018-04-24T03:30:00Z,30.3288,-87.8293,2.082,1111122 
DISL,ioos:station:DISL:BSCA:1,2018-04-24T05:00:00Z,30.3288,-87.8293,1.916,1111122 
DISL,ioos:station:DISL:BSCA:1,2018-04-24T06:00:00Z,30.3288,-87.8293,1.836,1111122 
DISL,ioos:station:DISL:BSCA:1,2018-04-24T07:00:00Z,30.3288,-87.8293,1.8,1111122 
DISL,ioos:station:DISL:BSCA:1,2018-04-24T21:00:00Z,30.3288,-87.8293,2.176,1111122 
DISL,ioos:station:DISL:BSCA:1,2018-04-24T22:00:00Z,30.3288,-87.8293,2.183,1111122 
DISL,ioos:station:DISL:BSCA:1,2018-04-24T23:00:00Z,30.3288,-87.8293,2.169,1111122 
DISL,ioos:station:DISL:BSCA:1,2018-04-25T00:00:00Z,30.3288,-87.8293,2.09,1111122 
DISL,ioos:station:DISL:BSCA:1,2018-04-25T01:00:00Z,30.3288,-87.8293,2.026,1111122 
DISL,ioos:station:DISL:BSCA:1,2018-04-25T01:30:00Z,30.3288,-87.8293,1.992,1111122 
DISL,ioos:station:DISL:BSCA:1,2018-04-25T02:30:00Z,30.3288,-87.8293,1.919,1111122 
DISL,ioos:station:DISL:BSCA:1,2018-04-25T03:30:00Z,30.3288,-87.8293,1.871,1111122 
DISL,ioos:station:DISL:BSCA:1,2018-04-26T04:30:00Z,30.3288,-87.8293,1.917,1111122 
DISL,ioos:station:DISL:BSCA:1,2018-04-26T05:30:00Z,30.3288,-87.8293,1.88,1111122 
DISL,ioos:station:DISL:BSCA:1,2018-04-26T07:00:00Z,30.3288,-87.8293,1.828,1111122 
DISL,ioos:station:DISL:BSCA:1,2018-04-26T07:30:00Z,30.3288,-87.8293,1.82,1111122 
DISL,ioos:station:DISL:BSCA:1,2018-04-26T12:00:00Z,30.3288,-87.8293,1.887,1111122 
DISL,ioos:station:DISL:BSCA:1,2018-04-26T20:30:00Z,30.3288,-87.8293,1.946,1111122 
DISL,ioos:station:DISL:BSCA:1,2018-04-26T22:00:00Z,30.3288,-87.8293,1.966,1111122 
DISL,ioos:station:DISL:BSCA:1,2018-04-26T23:00:00Z,30.3288,-87.8293,1.974,1111122 
DISL,ioos:station:DISL:BSCA:1,2018-04-27T00:00:00Z,30.3288,-87.8293,1.955,1111122 
DISL,ioos:station:DISL:BSCA:1,2018-04-27T01:00:00Z,30.3288,-87.8293,1.925,1111122 
DISL,ioos:station:DISL:BSCA:1,2018-04-27T01:30:00Z,30.3288,-87.8293,1.888,1111122 
DISL,ioos:station:DISL:BSCA:1,2018-04-27T02:30:00Z,30.3288,-87.8293,1.907,1111122 
DISL,ioos:station:DISL:BSCA:1,2018-04-27T03:30:00Z,30.3288,-87.8293,1.877,1111122 
DISL,ioos:station:DISL:BSCA:1,2018-04-27T04:30:00Z,30.3288,-87.8293,1.847,1111122 
DISL,ioos:station:DISL:BSCA:1,2018-04-27T06:00:00Z,30.3288,-87.8293,1.824,1111122 
DISL,ioos:station:DISL:BSCA:1,2018-04-27T07:00:00Z,30.3288,-87.8293,1.835,1111122 
DISL,ioos:station:DISL:BSCA:1,2018-04-27T08:00:00Z,30.3288,-87.8293,1.815,1111122 
DISL,ioos:station:DISL:BSCA:1,2018-04-27T20:00:00Z,30.3288,-87.8293,1.882,1111122 
DISL,ioos:station:DISL:BSCA:1,2018-04-27T21:00:00Z,30.3288,-87.8293,1.845,1111122 
DISL,ioos:station:DISL:BSCA:1,2018-04-27T22:00:00Z,30.3288,-87.8293,1.82,1111122 
DISL,ioos:station:DISL:BSCA:1,2018-04-27T23:00:00Z,30.3288,-87.8293,1.8,1111122 
DISL,ioos:station:DISL:BSCA:1,2018-04-27T23:30:00Z,30.3288,-87.8293,1.795,1111122 
DISL,ioos:station:DISL:BSCA:1,2018-04-28T00:30:00Z,30.3288,-87.8293,1.831,1111122 
DISL,ioos:station:DISL:BSCA:1,2018-04-28T01:30:00Z,30.3288,-87.8293,1.829,1111122 
DISL,ioos:station:DISL:BSCA:1,2018-04-28T02:30:00Z,30.3288,-87.8293,1.829,1111122 
DISL,ioos:station:DISL:BSCA:1,2018-04-28T03:30:00Z,30.3288,-87.8293,1.835,1111122 
DISL,ioos:station:DISL:BSCA:1,2018-04-28T04:30:00Z,30.3288,-87.8293,1.853,1111122 
DISL,ioos:station:DISL:BSCA:1,2018-04-28T05:30:00Z,30.3288,-87.8293,1.862,1111122 
DISL,ioos:station:DISL:BSCA:1,2018-04-28T06:30:00Z,30.3288,-87.8293,1.872,1111122 
DISL,ioos:station:DISL:BSCA:1,2018-04-28T08:00:00Z,30.3288,-87.8293,1.834,1111122 
DISL,ioos:station:DISL:BSCA:1,2018-04-28T15:30:00Z,30.3288,-87.8293,1.947,1111122 
DISL,ioos:station:DISL:BSCA:1,2018-04-28T17:00:00Z,30.3288,-87.8293,1.971,1111122 
DISL,ioos:station:DISL:BSCA:1,2018-04-28T19:00:00Z,30.3288,-87.8293,1.925,1111122 
DISL,ioos:station:DISL:BSCA:1,2018-04-28T20:00:00Z,30.3288,-87.8293,1.891,1111122 
DISL,ioos:station:DISL:BSCA:1,2018-04-28T21:00:00Z,30.3288,-87.8293,1.854,1111122 
DISL,ioos:station:DISL:BSCA:1,2018-04-28T22:00:00Z,30.3288,-87.8293,1.82,1111122 
DISL,ioos:station:DISL:BSCA:1,2018-04-28T23:00:00Z,30.3288,-87.8293,1.793,1111122 
DISL,ioos:station:DISL:BSCA:1,2018-04-29T00:00:00Z,30.3288,-87.8293,1.796,1111122 
DISL,ioos:station:DISL:BSCA:1,2018-04-29T01:00:00Z,30.3288,-87.8293,1.801,1111122 
DISL,ioos:station:DISL:BSCA:1,2018-04-29T02:00:00Z,30.3288,-87.8293,1.787,1111122 
DISL,ioos:station:DISL:BSCA:1,2018-04-29T03:00:00Z,30.3288,-87.8293,1.782,1111122 
DISL,ioos:station:DISL:BSCA:1,2018-04-29T04:00:00Z,30.3288,-87.8293,1.793,1111122 
DISL,ioos:station:DISL:BSCA:1,2018-04-29T05:00:00Z,30.3288,-87.8293,1.81,1111122 
DISL,ioos:station:DISL:BSCA:1,2018-04-29T06:00:00Z,30.3288,-87.8293,1.813,1111122 
DISL,ioos:station:DISL:BSCA:1,2018-04-29T07:00:00Z,30.3288,-87.8293,1.823,1111122 
DISL,ioos:station:DISL:BSCA:1,2018-04-29T08:00:00Z,30.3288,-87.8293,1.822,1111122 
DISL,ioos:station:DISL:BSCA:1,2018-04-29T09:00:00Z,30.3288,-87.8293,1.81,1111122 
DISL,ioos:station:DISL:BSCA:1,2018-04-29T10:00:00Z,30.3288,-87.8293,1.807,1111122 
DISL,ioos:station:DISL:BSCA:1,2018-04-29T13:00:00Z,30.3288,-87.8293,1.814,1111122 
DISL,ioos:station:DISL:BSCA:1,2018-04-29T14:00:00Z,30.3288,-87.8293,1.82,1111122 
DISL,ioos:station:DISL:BSCA:1,2018-04-29T15:00:00Z,30.3288,-87.8293,1.859,1111122 
DISL,ioos:station:DISL:BSCA:1,2018-04-29T16:00:00Z,30.3288,-87.8293,1.858,1111122 
DISL,ioos:station:DISL:BSCA:1,2018-04-29T17:00:00Z,30.3288,-87.8293,1.86,1111122 
DISL,ioos:station:DISL:BSCA:1,2018-04-29T18:00:00Z,30.3288,-87.8293,1.869,1111122 
DISL,ioos:station:DISL:BSCA:1,2018-04-29T19:00:00Z,30.3288,-87.8293,1.865,1111122 
DISL,ioos:station:DISL:BSCA:1,2018-04-29T20:00:00Z,30.3288,-87.8293,1.814,1111122 
DISL,ioos:station:DISL:BSCA:1,2018-04-29T21:00:00Z,30.3288,-87.8293,1.748,1111122 
DISL,ioos:station:DISL:BSCA:1,2018-04-29T22:00:00Z,30.3288,-87.8293,1.69,1111122 
DISL,ioos:station:DISL:BSCA:1,2018-04-29T23:00:00Z,30.3288,-87.8293,1.648,1111122 
DISL,ioos:station:DISL:BSCA:1,2018-04-30T00:00:00Z,30.3288,-87.8293,1.613,1111122 
DISL,ioos:station:DISL:BSCA:1,2018-04-30T01:00:00Z,30.3288,-87.8293,1.578,1111122 
DISL,ioos:station:DISL:BSCA:1,2018-04-30T02:00:00Z,30.3288,-87.8293,1.566,1111122 